(300539) = 2007 TP246 = 2003 YA58

Discovered at Catalina on 2007-10-09 by CSS.

Orbit

Orbit type: Main Belt

Note: WebGL enabled browser required.

epoch2022-01-21.0
epoch JD2459600.5
perihelion date2021-02-07.08972
perihelion JD2459252.58972
argument of perihelion (°)189.46307
ascending node (°)261.91001
inclination (°)12.97898
eccentricity0.2143608
perihelion distance (AU)2.0699789
Tisserand w.r.t. Jupiter3.3
ΔV w.r.t. Earth (km/sec)9.9
semimajor axis (AU)2.6347703
mean anomaly (°)80.17832
mean daily motion (°/day)0.23045690
aphelion distance (AU)3.200
period (years)4.28
P-vector [x]-0.01980394
P-vector [y]0.93136455
P-vector [z]0.36354901
Q-vector [x]-0.97476382
Q-vector [y]0.06288366
Q-vector [z]-0.21419885
absolute magnitude16.3
phase slope0.15
uncertainty0
referenceMPO 697160
observations used441
oppositions13
arc length (days)8151
first opposition used2000
last opposition used2022
residual rms (arc-secs)0.65
perturbers coarse indicatorM-v
perturbers precise indicator003Ek
first observation date used2000-01-11.0
last observation date used2022-05-06.0
computer namePan
JD of orbit computation2456847.865030
perihelion JD uncertainty (days)1.8560E-04
argument of perihelion uncertainty (°)5.5262E-05
ascending node uncertainty (°)3.9969E-05
inclination uncertainty (°)8.3826E-06
eccentricity uncertainty 6.4254E-08
perihelion distance uncertainty (AU)1.7441E-07
Minimum Orbit Intersection Distances (in AU)
for orbit epoch: 2458200.5, reference: MPO402137
Mercury1.77259
Venus1.36059
Earth1.09562
Mars0.51518
Jupiter2.03933
Saturn6.86663
Uranus15.5534
Neptune26.9714

Observations

447 total observations over interval: 2000 01 11.38133 – 2022 05 06.306767
These data are available for download (format description).

Date (UT) J2000 RA J2000 Dec Magn Location Ref
2000 01 11.38133 09 43 12.78 -03 44 11.6   704 – Lincoln Laboratory ETS, New Mexico MPS 407609
2000 01 11.39663 09 43 12.29 -03 44 19.0   704 – Lincoln Laboratory ETS, New Mexico MPS 407609
2000 01 11.41183 09 43 11.72 -03 44 25.0   704 – Lincoln Laboratory ETS, New Mexico MPS 407609
2000 01 11.44242 09 43 10.66 -03 44 39.3   704 – Lincoln Laboratory ETS, New Mexico MPS 407609
2000 02 08.31661 09 19 44.35 -05 17 15.1   704 – Lincoln Laboratory ETS, New Mexico MPS 407609
2000 02 08.33342 09 19 43.34 -05 17 14.2   704 – Lincoln Laboratory ETS, New Mexico MPS 407609
2000 02 08.35035 09 19 42.26 -05 17 14.6   704 – Lincoln Laboratory ETS, New Mexico MPS 407609
2000 02 08.36724 09 19 41.24 -05 17 14.1   704 – Lincoln Laboratory ETS, New Mexico MPS 407609
2000 03 06.28990 08 58 16.15 -03 45 45.0 18.8   608 – Haleakala-AMOS MPS 229895
2000 03 06.30057 08 58 15.79 -03 45 41.7 18.7   608 – Haleakala-AMOS MPS 229895
2000 03 06.31094 08 58 15.47 -03 45 38.7 18.8   608 – Haleakala-AMOS MPS 229895
2003 12 19.26989 06 01 31.91 +20 35 33.5 17.9   704 – Lincoln Laboratory ETS, New Mexico MPS 94935
2003 12 19.28325 06 01 31.03 +20 35 26.3 18.3   704 – Lincoln Laboratory ETS, New Mexico MPS 94935
2003 12 19.29647 06 01 30.17 +20 35 19.3 18.2   704 – Lincoln Laboratory ETS, New Mexico MPS 94935
2003 12 19.30977 06 01 29.30 +20 35 11.5 18.1   704 – Lincoln Laboratory ETS, New Mexico MPS 94935
2003 12 19.32312 06 01 28.43 +20 35 04.2 18.3   704 – Lincoln Laboratory ETS, New Mexico MPS 94935
2003 12 21.27485 05 59 26.43 +20 17 07.6 18.1   704 – Lincoln Laboratory ETS, New Mexico MPS 94935
2003 12 21.28757 05 59 25.60 +20 17 00.8 18.4   704 – Lincoln Laboratory ETS, New Mexico MPS 94935
2003 12 21.30026 05 59 24.79 +20 16 53.5 18.5   704 – Lincoln Laboratory ETS, New Mexico MPS 94935
2003 12 21.31307 05 59 23.81 +20 16 46.9 19.1   704 – Lincoln Laboratory ETS, New Mexico MPS 94935
2003 12 21.32583 05 59 23.10 +20 16 39.3 18.3   704 – Lincoln Laboratory ETS, New Mexico MPS 94935
2003 12 23.26276 05 57 22.08 +19 58 56.1 17.8   704 – Lincoln Laboratory ETS, New Mexico MPS 94935
2003 12 23.27544 05 57 21.24 +19 58 49.3 18.2   704 – Lincoln Laboratory ETS, New Mexico MPS 94935
2003 12 23.28807 05 57 20.44 +19 58 42.4 18.4   704 – Lincoln Laboratory ETS, New Mexico MPS 94935
2003 12 23.30078 05 57 19.63 +19 58 35.1 19.0   704 – Lincoln Laboratory ETS, New Mexico MPS 94935
2003 12 23.31362 05 57 18.73 +19 58 28.4 18.4   704 – Lincoln Laboratory ETS, New Mexico MPS 94935
2005 05 11.20429 14 35 34.28 -27 12 34.2 20.3   644 – Palomar Mountain/NEAT MPS 229895
2005 05 11.26728 14 35 30.78 -27 12 05.4 20.7   644 – Palomar Mountain/NEAT MPS 229895
2005 05 11.32853 14 35 27.39 -27 11 37.5 20.2   644 – Palomar Mountain/NEAT MPS 229895
2007 10 09.33553 02 17 12.58 +31 48 16.7 19.1 V 703 – Catalina Sky Survey MPS 223720
2007 10 09.34417 02 17 12.19 +31 48 16.0 19.0 V 703 – Catalina Sky Survey MPS 223720
2007 10 09.35278 02 17 11.79 +31 48 13.7 19.5 V 703 – Catalina Sky Survey MPS 223720
2007 10 09.36138 02 17 11.43 +31 48 12.8 19.3 V 703 – Catalina Sky Survey MPS 223721
2007 10 12.38599 02 15 06.01 +31 38 10.5 19.2 r 699 – Lowell Observatory-LONEOS MPS 223721
2007 10 12.40539 02 15 05.07 +31 38 06.2 19.3 r 699 – Lowell Observatory-LONEOS MPS 223721
2007 10 12.42474 02 15 04.29 +31 38 01.9 19.2 r 699 – Lowell Observatory-LONEOS MPS 223721
2007 10 12.44418 02 15 03.30 +31 37 56.9 19.3 r 699 – Lowell Observatory-LONEOS MPS 223721
2007 10 14.30661 02 13 40.26 +31 30 16.2   704 – Lincoln Laboratory ETS, New Mexico MPS 407609
2007 10 14.32276 02 13 39.61 +31 30 12.6 19.8 V G96 – Mt. Lemmon Survey MPS 223721
2007 10 14.32549 02 13 39.46 +31 30 11.7 19.9 V G96 – Mt. Lemmon Survey MPS 223721
2007 10 14.32814 02 13 39.36 +31 30 11.0 19.8 V G96 – Mt. Lemmon Survey MPS 223721
2007 10 14.32907 02 13 39.17 +31 30 11.1   704 – Lincoln Laboratory ETS, New Mexico MPS 407609
2007 10 14.33084 02 13 39.21 +31 30 10.4 19.6 V G96 – Mt. Lemmon Survey MPS 223721
2007 10 14.34034 02 13 38.72 +31 30 08.2   704 – Lincoln Laboratory ETS, New Mexico MPS 407609
2007 10 14.35160 02 13 38.01 +31 30 04.6   704 – Lincoln Laboratory ETS, New Mexico MPS 407609
2007 10 16.39367 02 12 01.94 +31 20 20.0 20.2 V 703 – Catalina Sky Survey MPS 223721
2007 10 16.40138 02 12 01.62 +31 20 19.3 20.0 V 703 – Catalina Sky Survey MPS 223721
2007 10 16.40905 02 12 01.18 +31 20 15.1 19.9 V 703 – Catalina Sky Survey MPS 223721
2007 10 16.41675 02 12 00.79 +31 20 12.3 20.0 V 703 – Catalina Sky Survey MPS 223721
2007 10 21.40096 02 07 50.34 +30 50 44.5 18.9 V 703 – Catalina Sky Survey MPS 223721
2007 10 21.41157 02 07 49.69 +30 50 39.5 18.7 V 703 – Catalina Sky Survey MPS 223721
2007 10 21.42220 02 07 49.18 +30 50 36.3 18.8 V 703 – Catalina Sky Survey MPS 223721
2007 10 21.43282 02 07 48.64 +30 50 31.6 18.8 V 703 – Catalina Sky Survey MPS 223721
2007 11 02.42404 01 57 06.94 +29 08 58.3 18.7 V 703 – Catalina Sky Survey MPS 225065
2007 11 02.43068 01 57 06.62 +29 08 53.3 18.8 V 703 – Catalina Sky Survey MPS 225065
2007 11 02.43735 01 57 06.22 +29 08 50.1 18.9 V 703 – Catalina Sky Survey MPS 225065
2007 11 02.44399 01 57 05.90 +29 08 46.1 19.1 V 703 – Catalina Sky Survey MPS 225065
2007 11 09.24989 01 51 22.95 +27 55 36.7 19.0   704 – Lincoln Laboratory ETS, New Mexico MPS 225065
2007 11 09.26216 01 51 22.35 +27 55 28.2 19.9   704 – Lincoln Laboratory ETS, New Mexico MPS 225065
2007 11 09.28669 01 51 21.14 +27 55 11.2 19.4   704 – Lincoln Laboratory ETS, New Mexico MPS 225065
2007 11 09.29894 01 51 20.49 +27 55 03.3 19.8   704 – Lincoln Laboratory ETS, New Mexico MPS 225065
2007 11 13.25245 01 48 22.75 +27 09 11.2 18.8 V 703 – Catalina Sky Survey MPS 227005
2007 11 13.25971 01 48 22.39 +27 09 05.7 18.3 V 703 – Catalina Sky Survey MPS 227005
2007 11 13.26705 01 48 22.03 +27 09 00.5 18.7 V 703 – Catalina Sky Survey MPS 227005
2007 11 13.27432 01 48 21.74 +27 08 55.5 18.4 V 703 – Catalina Sky Survey MPS 227005
2007 12 02.27014 01 40 03.85 +23 24 02.9 19.5   704 – Lincoln Laboratory ETS, New Mexico MPS 229895
2007 12 02.28300 01 40 03.70 +23 23 54.2 19.6   704 – Lincoln Laboratory ETS, New Mexico MPS 229895
2007 12 02.29608 01 40 03.53 +23 23 45.6 20.0   704 – Lincoln Laboratory ETS, New Mexico MPS 229895
2007 12 02.30892 01 40 03.44 +23 23 36.3 19.7   704 – Lincoln Laboratory ETS, New Mexico MPS 229895
2007 12 16.13702 01 41 30.48 +21 06 33.9 19.1   704 – Lincoln Laboratory ETS, New Mexico MPS 231359
2007 12 16.14981 01 41 30.70 +21 06 26.9 19.2   704 – Lincoln Laboratory ETS, New Mexico MPS 231359
2007 12 16.16262 01 41 30.92 +21 06 20.7 19.5   704 – Lincoln Laboratory ETS, New Mexico MPS 231359
2007 12 16.17542 01 41 31.18 +21 06 14.1 19.4   704 – Lincoln Laboratory ETS, New Mexico MPS 231359
2007 12 16.18822 01 41 31.38 +21 06 06.8 19.3   704 – Lincoln Laboratory ETS, New Mexico MPS 231359
2007 12 16.19153 01 41 31.41 +21 06 05.2 19.6 V 703 – Catalina Sky Survey MPS 231834
2007 12 16.19810 01 41 31.56 +21 06 01.7 19.3 V 703 – Catalina Sky Survey MPS 231834
2007 12 16.20468 01 41 31.70 +21 05 59.0 18.9 V 703 – Catalina Sky Survey MPS 231834
2007 12 16.21125 01 41 31.81 +21 05 55.0 19.6 V 703 – Catalina Sky Survey MPS 231834
2007 12 16.24076 01 41 32.35 +21 05 39.6 19.3 V G96 – Mt. Lemmon Survey MPS 231834
2007 12 16.24762 01 41 32.49 +21 05 36.4 19.3 V G96 – Mt. Lemmon Survey MPS 231834
2007 12 16.25447 01 41 32.60 +21 05 32.7 19.4 V G96 – Mt. Lemmon Survey MPS 231834
2007 12 16.26133 01 41 32.74 +21 05 29.5 19.2 V G96 – Mt. Lemmon Survey MPS 231834
2008 02 29.14586 03 14 37.93 +18 56 03.7 19.9 V G96 – Mt. Lemmon Survey MPS 239531
2008 02 29.15265 03 14 38.83 +18 56 04.6 20.6 V G96 – Mt. Lemmon Survey MPS 239531
2008 02 29.15951 03 14 39.66 +18 56 05.2 21.7 V G96 – Mt. Lemmon Survey MPS 239531
2008 02 29.16632 03 14 40.38 +18 56 05.7 20.9 V G96 – Mt. Lemmon Survey MPS 239531
2008 03 01.16999 03 16 32.55 +18 58 13.3 20.2 V G96 – Mt. Lemmon Survey MPS 240822
2008 03 01.17679 03 16 33.31 +18 58 14.3 20.4 V G96 – Mt. Lemmon Survey MPS 240822
2008 03 01.18351 03 16 33.99 +18 58 15.1 20.5 V G96 – Mt. Lemmon Survey MPS 240822
2008 03 01.19024 03 16 34.78 +18 58 15.9 20.4 V G96 – Mt. Lemmon Survey MPS 240822
